N339PR FACT-FMMI

Flight info

Callsign N339PR
Flight time 4h 10m
Altitude 33000
Route TETAN UZ2 NIBEX DCT EXOBI UT122 VMA/N0437F270 UB536 SOPVI DCT MENIR MENIR1G
Aircraft FA7X/M-SDFGHIM1RWXY/H

Departure

Time 2026-05-04 16:10
Airport Cape Town International Airport (FACT)

Arrival

Time 2026-05-04 20:20
Airport Ivato International Airport (FMMI)
Time Latitude Longitude Altitude Speed Heading
2026-05-04 15:32 -33.96861 18.60004 158 ft 0 kts 74°
2026-05-04 16:00 -33.96861 18.60003 158 ft 1 kts 74°
2026-05-04 16:01 -33.96864 18.59992 158 ft 2 kts 74°
2026-05-04 16:01 -33.96867 18.59977 158 ft 2 kts 74°
2026-05-04 16:01 -33.96872 18.59959 157 ft 2 kts 74°
2026-05-04 16:01 -33.96875 18.59942 157 ft 2 kts 74°
2026-05-04 16:02 -33.96880 18.59924 157 ft 2 kts 74°
2026-05-04 16:02 -33.96883 18.59907 157 ft 1 kts 87°
2026-05-04 16:02 -33.96871 18.59891 157 ft 0 kts 164°
2026-05-04 16:05 -33.96872 18.59891 157 ft 0 kts 164°
2026-05-04 16:05 -33.96886 18.59896 157 ft 5 kts 164°
2026-05-04 16:05 -33.97029 18.59943 155 ft 13 kts 165°
2026-05-04 16:06 -33.97081 18.59959 155 ft 17 kts 167°
2026-05-04 16:06 -33.97556 18.60115 150 ft 22 kts 156°
2026-05-04 16:07 -33.97746 18.60205 147 ft 22 kts 160°
2026-05-04 16:07 -33.98284 18.60436 145 ft 31 kts 161°
2026-05-04 16:08 -33.98463 18.60511 145 ft 33 kts 162°
2026-05-04 16:08 -33.98792 18.60752 147 ft 4 kts 73°
2026-05-04 16:09 -33.98773 18.60838 148 ft 8 kts 78°
2026-05-04 16:09 -33.98393 18.60777 149 ft 97 kts 343°
2026-05-04 16:10 -33.96668 18.60300 1450 ft 161 kts 344°
2026-05-04 16:11 -33.91835 18.59345 4773 ft 266 kts 354°
2026-05-04 16:12 -33.87707 18.61574 9305 ft 297 kts 65°
2026-05-04 16:12 -33.87500 18.69658 12231 ft 370 kts 71°
2026-05-04 16:13 -33.85709 18.75211 14503 ft 390 kts 68°
2026-05-04 16:13 -33.83915 18.81412 16742 ft 408 kts 68°
2026-05-04 16:14 -33.82085 18.87738 18695 ft 424 kts 67°
2026-05-04 16:14 -33.80248 18.94073 20424 ft 439 kts 66°
2026-05-04 16:15 -33.77232 19.04443 22893 ft 458 kts 65°
2026-05-04 16:16 -33.75110 19.11716 24386 ft 470 kts 65°
2026-05-04 16:16 -33.71811 19.22993 26422 ft 487 kts 64°
2026-05-04 16:17 -33.69622 19.30446 27555 ft 498 kts 64°
2026-05-04 16:18 -33.65963 19.41950 29132 ft 499 kts 50°
2026-05-04 16:18 -33.64030 19.45190 29628 ft 495 kts 44°
2026-05-04 16:19 -33.57746 19.54744 31077 ft 506 kts 43°
2026-05-04 16:19 -33.53399 19.61376 32197 ft 509 kts 43°
2026-05-04 16:20 -33.46911 19.71239 32973 ft 529 kts 43°
2026-05-04 16:20 -33.42309 19.78227 32979 ft 545 kts 43°
2026-05-04 16:21 -33.35230 19.88952 32978 ft 556 kts 43°
2026-05-04 16:22 -33.30427 19.96212 32978 ft 559 kts 43°
2026-05-04 16:23 -33.15038 20.16838 32980 ft 554 kts 39°
2026-05-04 16:25 -32.99587 20.37269 32981 ft 553 kts 41°
2026-05-04 16:26 -32.81622 20.60886 32992 ft 553 kts 41°
2026-05-04 16:28 -32.68878 20.77544 32979 ft 553 kts 41°
2026-05-04 16:29 -32.50802 21.01041 32953 ft 555 kts 41°
2026-05-04 16:31 -32.37821 21.17825 32953 ft 554 kts 41°
2026-05-04 16:32 -32.22190 21.37929 32954 ft 554 kts 41°
2026-05-04 16:33 -32.12326 21.50579 32935 ft 492 kts 40°
2026-05-04 16:34 -32.05382 21.59427 32955 ft 495 kts 41°
2026-05-04 16:35 -31.91309 21.77332 32941 ft 497 kts 40°
2026-05-04 16:36 -31.84294 21.86226 32948 ft 496 kts 40°
2026-05-04 16:37 -31.77239 21.95147 32949 ft 496 kts 40°
2026-05-04 16:38 -31.68046 22.06738 32950 ft 497 kts 40°
2026-05-04 16:39 -31.56560 22.21173 32950 ft 496 kts 40°
2026-05-04 16:40 -31.48275 22.31550 32951 ft 496 kts 40°
2026-05-04 16:41 -31.36483 22.46270 32952 ft 495 kts 40°
2026-05-04 16:43 -31.24664 22.60965 32956 ft 495 kts 40°
2026-05-04 16:43 -31.17613 22.69703 32941 ft 495 kts 39°
2026-05-04 16:45 -31.03464 22.87176 32943 ft 495 kts 40°
2026-05-04 16:46 -30.91613 23.01701 32943 ft 495 kts 41°
2026-05-04 16:47 -30.82159 23.13250 32945 ft 499 kts 42°
2026-05-04 16:48 -30.72662 23.24816 32948 ft 495 kts 41°
2026-05-04 16:49 -30.63131 23.36386 32958 ft 495 kts 41°
2026-05-04 16:50 -30.53576 23.47951 32953 ft 495 kts 41°
2026-05-04 16:51 -30.46409 23.56601 32954 ft 495 kts 41°
2026-05-04 16:52 -30.36876 23.68078 32947 ft 496 kts 41°
2026-05-04 16:53 -30.29765 23.76614 32943 ft 496 kts 41°
2026-05-04 16:54 -30.20155 23.88124 32942 ft 494 kts 41°
2026-05-04 16:55 -30.05806 24.05245 32950 ft 495 kts 41°
2026-05-04 16:56 -29.93810 24.19499 32952 ft 496 kts 41°
2026-05-04 16:57 -29.86635 24.28002 32954 ft 494 kts 41°
2026-05-04 16:58 -29.77043 24.39337 32949 ft 495 kts 41°
2026-05-04 17:00 -29.62640 24.56294 32956 ft 495 kts 41°
2026-05-04 17:01 -29.50703 24.70297 32942 ft 493 kts 40°
2026-05-04 17:02 -29.41092 24.81530 32946 ft 493 kts 41°
2026-05-04 17:03 -29.33858 24.89966 32945 ft 495 kts 40°
2026-05-04 17:03 -29.26631 24.98374 32944 ft 495 kts 40°
2026-05-04 17:04 -29.16933 25.09627 32951 ft 497 kts 41°
2026-05-04 17:05 -29.07245 25.20842 32952 ft 494 kts 42°
2026-05-04 17:06 -29.00048 25.29153 32950 ft 488 kts 42°
2026-05-04 17:07 -28.93727 25.36435 32951 ft 485 kts 41°
2026-05-04 17:07 -28.88206 25.42784 32954 ft 485 kts 42°
2026-05-04 17:08 -28.81183 25.50847 32951 ft 486 kts 42°
2026-05-04 17:09 -28.76418 25.56311 32952 ft 485 kts 41°
2026-05-04 17:09 -28.71666 25.61748 32954 ft 484 kts 42°
2026-05-04 17:10 -28.59844 25.75247 32945 ft 485 kts 41°
2026-05-04 17:11 -28.55128 25.80620 32946 ft 484 kts 41°
2026-05-04 17:12 -28.47983 25.88746 32945 ft 484 kts 41°
2026-05-04 17:13 -28.36057 26.02272 32946 ft 484 kts 41°
2026-05-04 17:14 -28.26522 26.13051 32949 ft 484 kts 41°
2026-05-04 17:15 -28.19364 26.21123 32948 ft 485 kts 41°
2026-05-04 17:16 -28.09819 26.31862 32950 ft 484 kts 41°
2026-05-04 17:17 -28.00269 26.42579 32950 ft 484 kts 41°
2026-05-04 17:18 -27.90699 26.53294 32950 ft 485 kts 41°
2026-05-04 17:19 -27.81225 26.63871 32955 ft 484 kts 41°
2026-05-04 17:20 -27.71798 26.74369 32945 ft 483 kts 41°
2026-05-04 17:20 -27.64644 26.82317 32947 ft 484 kts 41°
2026-05-04 17:21 -27.55025 26.92980 32948 ft 485 kts 41°
2026-05-04 17:22 -27.50239 26.98276 32950 ft 486 kts 41°
2026-05-04 17:23 -27.40570 27.08954 32946 ft 488 kts 41°
2026-05-04 17:24 -27.33325 27.16937 32952 ft 489 kts 41°
2026-05-04 17:25 -27.23610 27.27616 32950 ft 489 kts 41°
2026-05-04 17:26 -27.13438 27.37714 32953 ft 487 kts 36°
2026-05-04 17:27 -27.00509 27.49949 32951 ft 486 kts 36°
2026-05-04 17:28 -26.90279 27.59604 32953 ft 479 kts 36°
2026-05-04 17:29 -26.77622 27.76230 33225 ft 495 kts 56°
2026-05-04 17:31 -26.69023 27.92817 33244 ft 495 kts 56°
2026-05-04 17:32 -26.60413 28.09357 33245 ft 494 kts 56°
2026-05-04 17:33 -26.53479 28.22630 33247 ft 495 kts 56°
2026-05-04 17:34 -26.46572 28.35816 33249 ft 494 kts 56°
2026-05-04 17:35 -26.37885 28.52343 33249 ft 495 kts 56°
2026-05-04 17:36 -26.34421 28.58916 33249 ft 494 kts 56°
2026-05-04 17:36 -26.30960 28.65474 33250 ft 494 kts 56°
2026-05-04 17:37 -26.27536 28.71953 33241 ft 494 kts 56°
2026-05-04 17:37 -26.24092 28.78458 33242 ft 493 kts 56°
2026-05-04 17:38 -26.20604 28.85037 33243 ft 496 kts 56°
2026-05-04 17:38 -26.17096 28.91643 33244 ft 497 kts 56°
2026-05-04 17:39 -26.11814 29.01577 33245 ft 499 kts 57°
2026-05-04 17:39 -26.08282 29.08208 33246 ft 500 kts 57°
2026-05-04 17:40 -26.05006 29.14964 33249 ft 503 kts 72°
2026-05-04 17:40 -26.04522 29.18712 33265 ft 505 kts 88°
2026-05-04 17:40 -26.04458 29.22533 33253 ft 505 kts 89°
2026-05-04 17:41 -26.04209 29.30277 33248 ft 505 kts 88°
2026-05-04 17:41 -26.03912 29.38078 33249 ft 505 kts 88°
2026-05-04 17:42 -26.03612 29.45816 33249 ft 505 kts 88°
2026-05-04 17:42 -26.03307 29.53632 33249 ft 505 kts 88°
2026-05-04 17:43 -26.02998 29.61415 33210 ft 505 kts 88°
2026-05-04 17:43 -26.02690 29.69073 33160 ft 505 kts 87°
2026-05-04 17:44 -26.02375 29.76810 33117 ft 504 kts 87°
2026-05-04 17:44 -26.02057 29.84497 33109 ft 504 kts 87°
2026-05-04 17:45 -26.01730 29.92306 33109 ft 505 kts 87°
2026-05-04 17:45 -26.01401 30.00075 33110 ft 505 kts 87°
2026-05-04 17:46 -26.01067 30.07850 33111 ft 505 kts 87°
2026-05-04 17:46 -26.00728 30.15648 33112 ft 504 kts 87°
2026-05-04 17:47 -26.00386 30.23425 33113 ft 505 kts 87°
2026-05-04 17:47 -26.00040 30.31207 33113 ft 505 kts 87°
2026-05-04 17:48 -25.99691 30.38949 33114 ft 505 kts 87°
2026-05-04 17:48 -25.99336 30.46760 33115 ft 505 kts 87°
2026-05-04 17:49 -25.98974 30.54573 33115 ft 505 kts 87°
2026-05-04 17:49 -25.98611 30.62356 33116 ft 505 kts 87°
2026-05-04 17:50 -25.98249 30.70012 33108 ft 504 kts 86°
2026-05-04 17:50 -25.97887 30.77581 33108 ft 504 kts 86°
2026-05-04 17:51 -25.97515 30.85285 33109 ft 504 kts 86°
2026-05-04 17:51 -25.97133 30.93095 33110 ft 504 kts 86°
2026-05-04 17:52 -25.96749 31.00850 33111 ft 505 kts 87°
2026-05-04 17:52 -25.96360 31.08634 33112 ft 506 kts 87°
2026-05-04 17:53 -25.95958 31.16452 33114 ft 504 kts 88°
2026-05-04 17:53 -25.95566 31.24204 33115 ft 504 kts 89°
2026-05-04 17:54 -25.95167 31.31965 33116 ft 504 kts 89°
2026-05-04 17:54 -25.94762 31.39737 33116 ft 504 kts 89°
2026-05-04 17:55 -25.94353 31.47518 33117 ft 504 kts 89°
2026-05-04 17:55 -25.93939 31.55312 33118 ft 504 kts 89°
2026-05-04 17:56 -25.93522 31.63077 33119 ft 504 kts 89°
2026-05-04 17:56 -25.93107 31.70718 33104 ft 504 kts 88°
2026-05-04 17:57 -25.92688 31.78374 33056 ft 504 kts 88°
2026-05-04 17:57 -25.92261 31.86083 33005 ft 504 kts 88°
2026-05-04 17:58 -25.91828 31.93826 32955 ft 504 kts 88°
2026-05-04 17:58 -25.91313 32.01545 32951 ft 504 kts 87°
2026-05-04 17:59 -25.90741 32.09322 32952 ft 504 kts 87°
2026-05-04 18:00 -25.89887 32.20838 32950 ft 504 kts 87°
2026-05-04 18:00 -25.89329 32.28312 32949 ft 504 kts 87°
2026-05-04 18:01 -25.88750 32.35992 32949 ft 504 kts 87°
2026-05-04 18:01 -25.88163 32.43734 32950 ft 504 kts 87°
2026-05-04 18:02 -25.87272 32.55373 32951 ft 504 kts 87°
2026-05-04 18:02 -25.85882 32.62876 32962 ft 508 kts 67°
2026-05-04 18:03 -25.82925 32.69864 32945 ft 508 kts 65°
2026-05-04 18:03 -25.79975 32.76858 32945 ft 508 kts 65°
2026-05-04 18:04 -25.77001 32.83912 32945 ft 508 kts 65°
2026-05-04 18:05 -25.72509 32.94540 32946 ft 504 kts 65°
2026-05-04 18:05 -25.69542 33.01548 32947 ft 500 kts 66°
2026-05-04 18:06 -25.65127 33.11955 32948 ft 493 kts 66°
2026-05-04 18:06 -25.62218 33.18800 32948 ft 493 kts 66°
2026-05-04 18:07 -25.59289 33.25679 32949 ft 494 kts 66°
2026-05-04 18:07 -25.56356 33.32556 32949 ft 494 kts 66°
2026-05-04 18:08 -25.53434 33.39396 32950 ft 493 kts 66°
2026-05-04 18:08 -25.50494 33.46269 32950 ft 493 kts 66°
2026-05-04 18:09 -25.44603 33.60005 32951 ft 494 kts 66°
2026-05-04 18:10 -25.41674 33.66820 32949 ft 494 kts 66°
2026-05-04 18:10 -25.38720 33.73682 32948 ft 494 kts 66°
2026-05-04 18:11 -25.35778 33.80505 32948 ft 494 kts 66°
2026-05-04 18:11 -25.32833 33.87324 32948 ft 494 kts 66°
2026-05-04 18:12 -25.29873 33.94167 32949 ft 494 kts 66°
2026-05-04 18:12 -25.26924 34.00965 32950 ft 494 kts 65°
2026-05-04 18:13 -25.23947 34.07810 32950 ft 494 kts 65°
2026-05-04 18:14 -25.19474 34.18074 32987 ft 494 kts 65°
2026-05-04 18:14 -25.16512 34.24857 33018 ft 494 kts 65°
2026-05-04 18:15 -25.11482 34.36353 33059 ft 494 kts 65°
2026-05-04 18:16 -25.08679 34.42746 33061 ft 496 kts 65°
2026-05-04 18:16 -25.05702 34.49527 33062 ft 499 kts 65°
2026-05-04 18:17 -25.01137 34.59904 33064 ft 503 kts 65°
2026-05-04 18:18 -24.96509 34.70397 33058 ft 508 kts 65°
2026-05-04 18:18 -24.93411 34.77408 33058 ft 509 kts 65°
2026-05-04 18:19 -24.88781 34.87863 33053 ft 506 kts 65°
2026-05-04 18:19 -24.85691 34.94829 33053 ft 504 kts 65°
2026-05-04 18:20 -24.82625 35.01730 33054 ft 502 kts 65°
2026-05-04 18:20 -24.79572 35.08591 33055 ft 501 kts 65°
2026-05-04 18:21 -24.76494 35.15498 33055 ft 501 kts 65°
2026-05-04 18:21 -24.73430 35.22362 33056 ft 501 kts 65°
2026-05-04 18:22 -24.70367 35.29215 33057 ft 501 kts 65°
2026-05-04 18:22 -24.67285 35.36100 33057 ft 501 kts 65°
2026-05-04 18:23 -24.64183 35.43019 33058 ft 501 kts 65°
2026-05-04 18:23 -24.61103 35.49878 33059 ft 501 kts 65°
2026-05-04 18:24 -24.58017 35.56738 33059 ft 501 kts 65°
2026-05-04 18:24 -24.54921 35.63614 33060 ft 501 kts 65°
2026-05-04 18:25 -24.51837 35.70451 33054 ft 501 kts 65°
2026-05-04 18:25 -24.48732 35.77323 33055 ft 501 kts 65°
2026-05-04 18:26 -24.45643 35.84152 33055 ft 501 kts 65°
2026-05-04 18:26 -24.42544 35.90993 33056 ft 501 kts 65°
2026-05-04 18:27 -24.39430 35.97854 33057 ft 501 kts 65°
2026-05-04 18:27 -24.36328 36.04682 33057 ft 501 kts 65°
2026-05-04 18:28 -24.33196 36.11563 33058 ft 501 kts 65°
2026-05-04 18:28 -24.30086 36.18386 33059 ft 501 kts 65°
2026-05-04 18:29 -24.26965 36.25224 33059 ft 501 kts 65°
2026-05-04 18:29 -24.23846 36.32047 33060 ft 501 kts 65°
2026-05-04 18:30 -24.19165 36.42269 33061 ft 501 kts 65°
2026-05-04 18:31 -24.16035 36.49091 33062 ft 501 kts 65°
2026-05-04 18:31 -24.12915 36.55882 33062 ft 501 kts 65°
2026-05-04 18:32 -24.09761 36.62737 33063 ft 501 kts 65°
2026-05-04 18:32 -24.06636 36.69519 33058 ft 501 kts 64°
2026-05-04 18:33 -24.03488 36.76353 33058 ft 501 kts 64°
2026-05-04 18:33 -24.00353 36.83170 33059 ft 501 kts 64°
2026-05-04 18:34 -23.97216 36.89983 33059 ft 501 kts 64°
2026-05-04 18:34 -23.94069 36.96806 33060 ft 501 kts 64°
2026-05-04 18:35 -23.90934 37.03595 33060 ft 499 kts 65°
2026-05-04 18:35 -23.87818 37.10332 33054 ft 497 kts 65°
2026-05-04 18:36 -23.84705 37.17053 33055 ft 495 kts 65°
2026-05-04 18:36 -23.81599 37.23750 33055 ft 494 kts 65°
2026-05-04 18:37 -23.78505 37.30413 33056 ft 494 kts 65°
2026-05-04 18:37 -23.75378 37.37135 33056 ft 494 kts 65°
2026-05-04 18:38 -23.72289 37.43767 33057 ft 494 kts 65°
2026-05-04 18:38 -23.69163 37.50469 33057 ft 494 kts 65°
2026-05-04 18:39 -23.66045 37.57145 33058 ft 494 kts 65°
2026-05-04 18:39 -23.62923 37.63821 33058 ft 494 kts 65°
2026-05-04 18:40 -23.59805 37.70477 33054 ft 494 kts 64°
2026-05-04 18:40 -23.56682 37.77137 33055 ft 494 kts 64°
2026-05-04 18:41 -23.53554 37.83796 33055 ft 494 kts 64°
2026-05-04 18:41 -23.50418 37.90464 33056 ft 494 kts 64°
2026-05-04 18:42 -23.47278 37.97132 33056 ft 494 kts 64°
2026-05-04 18:42 -23.44149 38.03767 33057 ft 494 kts 64°
2026-05-04 18:43 -23.40998 38.10438 33057 ft 494 kts 64°
2026-05-04 18:43 -23.37851 38.17094 33058 ft 494 kts 64°
2026-05-04 18:44 -23.34715 38.23716 33058 ft 494 kts 64°
2026-05-04 18:44 -23.31550 38.30390 33059 ft 494 kts 64°
2026-05-04 18:45 -23.28402 38.37019 33059 ft 494 kts 64°
2026-05-04 18:45 -23.25252 38.43644 33060 ft 494 kts 64°
2026-05-04 18:46 -23.22104 38.50255 33060 ft 494 kts 64°
2026-05-04 18:46 -23.18941 38.56890 33061 ft 494 kts 64°
2026-05-04 18:47 -23.15781 38.63509 33061 ft 494 kts 64°
2026-05-04 18:47 -23.12631 38.70097 33057 ft 494 kts 64°
2026-05-04 18:48 -23.09471 38.76697 33058 ft 494 kts 64°
2026-05-04 18:48 -23.06302 38.83310 33058 ft 494 kts 64°
2026-05-04 18:49 -23.03137 38.89903 33059 ft 494 kts 64°
2026-05-04 18:49 -22.99963 38.96507 33059 ft 492 kts 64°
2026-05-04 18:50 -22.96804 39.03071 33059 ft 490 kts 64°
2026-05-04 18:50 -22.93656 39.09603 33060 ft 487 kts 64°
2026-05-04 18:51 -22.90531 39.16078 33060 ft 486 kts 64°
2026-05-04 18:51 -22.87403 39.22552 33055 ft 486 kts 64°
2026-05-04 18:52 -22.84295 39.28978 33055 ft 486 kts 64°
2026-05-04 18:52 -22.81148 39.35475 33055 ft 486 kts 64°
2026-05-04 18:53 -22.78007 39.41951 33056 ft 486 kts 64°
2026-05-04 18:53 -22.74865 39.48420 33056 ft 486 kts 64°
2026-05-04 18:54 -22.71720 39.54885 33056 ft 486 kts 64°
2026-05-04 18:54 -22.68564 39.61369 33057 ft 486 kts 64°
2026-05-04 18:55 -22.65415 39.67827 33055 ft 486 kts 64°
2026-05-04 18:55 -22.60709 39.77464 33055 ft 486 kts 64°
2026-05-04 18:56 -22.57550 39.83923 33055 ft 486 kts 64°
2026-05-04 18:56 -22.54365 39.90426 33056 ft 486 kts 64°
2026-05-04 18:57 -22.51208 39.96864 33056 ft 486 kts 64°
2026-05-04 18:57 -22.48040 40.03318 33056 ft 486 kts 64°
2026-05-04 18:58 -22.44859 40.09792 33057 ft 486 kts 64°
2026-05-04 18:58 -22.41701 40.16208 33057 ft 486 kts 64°
2026-05-04 18:59 -22.38513 40.22681 33057 ft 486 kts 64°
2026-05-04 18:59 -22.35333 40.29127 33058 ft 486 kts 64°
2026-05-04 19:00 -22.32149 40.35574 33058 ft 486 kts 64°
2026-05-04 19:00 -22.28953 40.42037 33059 ft 486 kts 64°
2026-05-04 19:01 -22.25764 40.48477 33059 ft 486 kts 64°
2026-05-04 19:01 -22.22564 40.54933 33059 ft 486 kts 64°
2026-05-04 19:02 -22.19385 40.61336 33060 ft 486 kts 64°
2026-05-04 19:02 -22.16192 40.67759 33058 ft 486 kts 63°
2026-05-04 19:03 -22.12985 40.74198 33058 ft 486 kts 63°
2026-05-04 19:03 -22.09776 40.80635 33058 ft 486 kts 63°
2026-05-04 19:04 -22.06562 40.87072 33059 ft 486 kts 64°
2026-05-04 19:04 -22.03350 40.93499 33059 ft 486 kts 64°
2026-05-04 19:05 -22.00159 40.99877 33060 ft 486 kts 64°
2026-05-04 19:05 -21.96936 41.06311 33060 ft 486 kts 64°
2026-05-04 19:06 -21.93738 41.12686 33061 ft 485 kts 64°
2026-05-04 19:06 -21.90518 41.19098 33059 ft 485 kts 64°
2026-05-04 19:07 -21.87308 41.25483 33043 ft 485 kts 64°
2026-05-04 19:07 -21.84102 41.31849 33031 ft 485 kts 64°
2026-05-04 19:08 -21.80906 41.38190 33018 ft 484 kts 64°
2026-05-04 19:08 -21.77686 41.44569 33011 ft 484 kts 64°
2026-05-04 19:09 -21.74476 41.50922 33008 ft 484 kts 64°
2026-05-04 19:09 -21.71248 41.57303 33008 ft 484 kts 64°
2026-05-04 19:10 -21.68030 41.63657 33009 ft 484 kts 64°
2026-05-04 19:10 -21.64825 41.69978 33007 ft 484 kts 64°
2026-05-04 19:11 -21.61609 41.76312 33008 ft 485 kts 64°
2026-05-04 19:11 -21.58359 41.82705 33062 ft 485 kts 64°
2026-05-04 19:12 -21.53512 41.92226 33167 ft 485 kts 64°
2026-05-04 19:13 -21.50269 41.98588 33237 ft 486 kts 64°
2026-05-04 19:13 -21.47039 42.04915 33272 ft 486 kts 64°
2026-05-04 19:14 -21.43774 42.11305 33273 ft 486 kts 64°
2026-05-04 19:14 -21.40522 42.17659 33273 ft 486 kts 64°
2026-05-04 19:15 -21.37273 42.24004 33274 ft 486 kts 64°
2026-05-04 19:15 -21.34016 42.30352 33274 ft 486 kts 64°
2026-05-04 19:16 -21.30750 42.36714 33275 ft 486 kts 64°
2026-05-04 19:16 -21.27496 42.43044 33275 ft 486 kts 64°
2026-05-04 19:17 -21.24236 42.49379 33275 ft 486 kts 64°
2026-05-04 19:17 -21.20964 42.55728 33276 ft 486 kts 64°
2026-05-04 19:18 -21.17691 42.62073 33276 ft 486 kts 64°
2026-05-04 19:18 -21.14442 42.68362 33274 ft 486 kts 63°
2026-05-04 19:19 -21.11166 42.74699 33275 ft 486 kts 63°
2026-05-04 19:19 -21.07888 42.81031 33275 ft 486 kts 63°
2026-05-04 19:20 -21.04613 42.87351 33275 ft 487 kts 63°
2026-05-04 19:20 -21.01313 42.93710 33276 ft 487 kts 63°
2026-05-04 19:21 -20.98031 43.00030 33276 ft 487 kts 63°
2026-05-04 19:21 -20.94743 43.06352 33276 ft 485 kts 63°
2026-05-04 19:22 -20.91460 43.12657 33277 ft 483 kts 63°
2026-05-04 19:22 -20.88215 43.18882 33271 ft 481 kts 63°
2026-05-04 19:23 -20.84950 43.25138 33270 ft 481 kts 63°
2026-05-04 19:23 -20.81701 43.31358 33271 ft 481 kts 63°
2026-05-04 19:24 -20.78441 43.37589 33271 ft 481 kts 63°
2026-05-04 19:24 -20.75162 43.43853 33271 ft 481 kts 63°
2026-05-04 19:25 -20.71919 43.50039 33272 ft 481 kts 63°
2026-05-04 19:25 -20.68641 43.56285 33272 ft 481 kts 63°
2026-05-04 19:26 -20.65362 43.62526 33272 ft 481 kts 63°
2026-05-04 19:26 -20.62127 43.68678 33271 ft 481 kts 63°
2026-05-04 19:27 -20.58862 43.74880 33271 ft 481 kts 63°
2026-05-04 19:27 -20.55583 43.81099 33272 ft 481 kts 63°
2026-05-04 19:28 -20.52309 43.87304 33272 ft 481 kts 63°
2026-05-04 19:28 -20.49030 43.93512 33272 ft 481 kts 63°
2026-05-04 19:29 -20.45734 43.99744 33273 ft 481 kts 63°
2026-05-04 19:29 -20.42456 44.05934 33273 ft 481 kts 63°
2026-05-04 19:30 -20.39177 44.12120 33273 ft 480 kts 63°
2026-05-04 19:30 -20.35901 44.18295 33273 ft 480 kts 63°
2026-05-04 19:31 -20.32614 44.24485 33274 ft 480 kts 63°
2026-05-04 19:31 -20.29317 44.30684 33274 ft 480 kts 63°
2026-05-04 19:32 -20.26372 44.37026 33274 ft 479 kts 67°
2026-05-04 19:32 -20.23505 44.43386 33274 ft 479 kts 67°
2026-05-04 19:33 -20.20614 44.49786 33275 ft 479 kts 67°
2026-05-04 19:33 -20.17731 44.56161 33275 ft 479 kts 67°
2026-05-04 19:34 -20.14851 44.62523 33275 ft 479 kts 67°
2026-05-04 19:34 -20.11974 44.68870 33274 ft 479 kts 66°
2026-05-04 19:35 -20.09078 44.75251 33275 ft 479 kts 66°
2026-05-04 19:35 -20.06187 44.81614 33275 ft 479 kts 66°
2026-05-04 19:36 -20.03288 44.87987 33275 ft 479 kts 66°
2026-05-04 19:36 -20.00374 44.94394 33275 ft 486 kts 65°
2026-05-04 19:37 -19.97434 45.00845 33274 ft 487 kts 64°
2026-05-04 19:37 -19.94484 45.07306 33273 ft 482 kts 63°
2026-05-04 19:38 -19.91569 45.13681 33271 ft 475 kts 62°
2026-05-04 19:38 -19.88702 45.19941 33274 ft 476 kts 62°
2026-05-04 19:39 -19.85808 45.26262 33274 ft 476 kts 62°
2026-05-04 19:39 -19.82933 45.32532 33275 ft 476 kts 62°
2026-05-04 19:40 -19.80020 45.38879 33275 ft 476 kts 62°
2026-05-04 19:40 -19.77119 45.45191 33275 ft 476 kts 62°
2026-05-04 19:41 -19.74224 45.51484 33275 ft 476 kts 62°
2026-05-04 19:41 -19.71310 45.57811 33275 ft 476 kts 62°
2026-05-04 19:42 -19.68393 45.64137 33276 ft 476 kts 62°
2026-05-04 19:42 -19.65544 45.70310 33272 ft 476 kts 62°
2026-05-04 19:43 -19.62643 45.76587 33272 ft 476 kts 62°
2026-05-04 19:43 -19.59726 45.82893 33272 ft 476 kts 62°
2026-05-04 19:44 -19.56825 45.89157 33272 ft 476 kts 62°
2026-05-04 19:44 -19.53895 45.95477 33272 ft 476 kts 62°
2026-05-04 19:45 -19.50989 46.01737 33272 ft 476 kts 62°
2026-05-04 19:45 -19.48052 46.08058 33273 ft 476 kts 62°
2026-05-04 19:46 -19.45119 46.14363 33273 ft 476 kts 62°
2026-05-04 19:46 -19.42196 46.20639 33273 ft 476 kts 62°
2026-05-04 19:47 -19.39277 46.26901 33273 ft 476 kts 62°
2026-05-04 19:47 -19.36329 46.33216 33273 ft 476 kts 62°
2026-05-04 19:48 -19.33400 46.39485 33274 ft 476 kts 62°
2026-05-04 19:48 -19.30476 46.45736 33274 ft 476 kts 62°
2026-05-04 19:49 -19.27540 46.52007 33274 ft 476 kts 62°
2026-05-04 19:49 -19.24938 46.58453 33280 ft 479 kts 76°
2026-05-04 19:50 -19.23844 46.65335 33275 ft 480 kts 79°
2026-05-04 19:50 -19.22824 46.72254 33270 ft 480 kts 79°
2026-05-04 19:51 -19.21797 46.79159 33271 ft 480 kts 79°
2026-05-04 19:51 -19.20755 46.86154 33271 ft 483 kts 79°
2026-05-04 19:52 -19.19698 46.93232 33270 ft 485 kts 78°
2026-05-04 19:52 -19.18652 47.00211 33269 ft 477 kts 76°
2026-05-04 19:53 -19.17611 47.07117 33269 ft 476 kts 76°
2026-05-04 19:53 -19.16533 47.14034 33264 ft 473 kts 71°
2026-05-04 19:53 -19.15246 47.17113 33271 ft 457 kts 51°
2026-05-04 19:54 -19.13134 47.19448 33274 ft 443 kts 31°
2026-05-04 19:54 -19.07717 47.22345 33271 ft 436 kts 20°
2026-05-04 19:54 -19.04895 47.23344 33264 ft 428 kts
2026-05-04 19:55 -19.02000 47.23213 33272 ft 422 kts 346°
2026-05-04 19:55 -18.96207 47.22227 33271 ft 423 kts 353°
2026-05-04 19:56 -18.90382 47.21641 33267 ft 421 kts 353°
2026-05-04 19:56 -18.84607 47.21009 33273 ft 426 kts 354°
2026-05-04 19:56 -18.81712 47.21463 33284 ft 437 kts 15°
2026-05-04 19:57 -18.79075 47.23045 33287 ft 452 kts 34°
2026-05-04 19:57 -18.77050 47.25600 33287 ft 468 kts 54°
2026-05-04 19:57 -18.75928 47.28837 33287 ft 483 kts 75°
2026-05-04 19:57 -18.75873 47.32382 33287 ft 496 kts 95°
2026-05-04 19:58 -18.76938 47.35877 33287 ft 506 kts 115°
2026-05-04 19:58 -18.79701 47.42556 33282 ft 496 kts 93°
2026-05-04 19:58 -18.79626 47.46090 33291 ft 486 kts 79°
2026-05-04 19:59 -18.79739 47.49662 33285 ft 498 kts 98°
2026-05-04 19:59 -18.81034 47.56868 33281 ft 497 kts 94°
2026-05-04 19:59 -18.81025 47.60386 33278 ft 484 kts 75°
2026-05-04 20:00 -18.79949 47.63662 33284 ft 469 kts 55°
2026-05-04 20:00 -18.77996 47.66252 33279 ft 453 kts 36°
2026-05-04 20:00 -18.75352 47.67946 33278 ft 438 kts 15°
2026-05-04 20:00 -18.72445 47.68502 33277 ft 427 kts 356°
2026-05-04 20:01 -18.69583 47.67902 33277 ft 420 kts 336°
2026-05-04 20:01 -18.67210 47.66277 33277 ft 419 kts 317°
2026-05-04 20:01 -18.65536 47.63786 33276 ft 425 kts 297°
2026-05-04 20:01 -18.64835 47.60772 33276 ft 435 kts 277°
2026-05-04 20:02 -18.65027 47.57572 33280 ft 442 kts 268°
2026-05-04 20:02 -18.65808 47.51172 33271 ft 442 kts 267°
2026-05-04 20:03 -18.66600 47.44776 33270 ft 442 kts 267°
2026-05-04 20:03 -18.67394 47.38346 33270 ft 442 kts 267°
2026-05-04 20:04 -18.68388 47.31971 33267 ft 451 kts 255°
2026-05-04 20:04 -18.69950 47.29147 33274 ft 441 kts 235°
2026-05-04 20:04 -18.72273 47.27199 33261 ft 413 kts 212°
2026-05-04 20:04 -18.74931 47.26416 33262 ft 390 kts 187°
2026-05-04 20:05 -18.77506 47.26817 33265 ft 366 kts 160°
2026-05-04 20:05 -18.79523 47.28245 33268 ft 336 kts 129°
2026-05-04 20:05 -18.80569 47.30268 33270 ft 294 kts 95°
2026-05-04 20:05 -18.80707 47.32261 33262 ft 259 kts 80°
2026-05-04 20:06 -18.80672 47.34056 33237 ft 234 kts 78°
2026-05-04 20:06 -18.80636 47.35683 33215 ft 208 kts 77°
2026-05-04 20:06 -18.80603 47.37150 33005 ft 192 kts 76°
2026-05-04 20:06 -18.80538 47.38555 32500 ft 196 kts 72°
2026-05-04 20:07 -18.80299 47.39983 31914 ft 197 kts 61°
2026-05-04 20:07 -18.79813 47.41242 31613 ft 177 kts 44°
2026-05-04 20:07 -18.79035 47.42183 31063 ft 169 kts 19°
2026-05-04 20:07 -18.78011 47.42594 30507 ft 153 kts 348°
2026-05-04 20:08 -18.77095 47.42296 30090 ft 134 kts 311°
2026-05-04 20:08 -18.76764 47.41415 29526 ft 144 kts 266°
2026-05-04 20:08 -18.77376 47.40517 29020 ft 172 kts 215°
2026-05-04 20:08 -18.78623 47.40525 28554 ft 204 kts 158°
2026-05-04 20:09 -18.79500 47.41732 27971 ft 222 kts 95°
2026-05-04 20:09 -18.79084 47.43162 27414 ft 202 kts 27°
2026-05-04 20:09 -18.77926 47.43364 26774 ft 164 kts 315°
2026-05-04 20:09 -18.77667 47.42381 26124 ft 157 kts 238°
2026-05-04 20:10 -18.78724 47.42106 25573 ft 194 kts 159°
2026-05-04 20:10 -18.79345 47.43372 24976 ft 219 kts 76°
2026-05-04 20:10 -18.78386 47.44395 24359 ft 195 kts 350°
2026-05-04 20:10 -18.77530 47.43718 23716 ft 158 kts 263°
2026-05-04 20:11 -18.78268 47.43051 23098 ft 174 kts 174°
2026-05-04 20:11 -18.78992 47.44075 22545 ft 207 kts 84°
2026-05-04 20:11 -18.78098 47.45089 21945 ft 198 kts 353°
2026-05-04 20:11 -18.77218 47.44385 21332 ft 160 kts 261°
2026-05-04 20:12 -18.77932 47.43759 20740 ft 165 kts 168°
2026-05-04 20:12 -18.78490 47.44788 20191 ft 196 kts 75°
2026-05-04 20:12 -18.77470 47.45547 19629 ft 191 kts 341°
2026-05-04 20:12 -18.76813 47.44659 19038 ft 158 kts 246°
2026-05-04 20:13 -18.77647 47.44266 18477 ft 160 kts 151°
2026-05-04 20:13 -18.77871 47.45384 17939 ft 187 kts 55°
2026-05-04 20:13 -18.76746 47.45694 17409 ft 181 kts 320°
2026-05-04 20:13 -18.76487 47.44660 16852 ft 153 kts 223°
2026-05-04 20:14 -18.77396 47.44685 16304 ft 158 kts 125°
2026-05-04 20:14 -18.77154 47.45761 15795 ft 179 kts 28°
2026-05-04 20:14 -18.76091 47.45514 15284 ft 170 kts 291°
2026-05-04 20:14 -18.76359 47.44545 14750 ft 149 kts 193°
2026-05-04 20:15 -18.77108 47.45064 14235 ft 157 kts 94°
2026-05-04 20:15 -18.76412 47.45850 13747 ft 171 kts 356°
2026-05-04 20:15 -18.75685 47.45080 13245 ft 159 kts 256°
2026-05-04 20:15 -18.76414 47.44518 12739 ft 146 kts 157°
2026-05-04 20:16 -18.76711 47.45416 12247 ft 157 kts 57°
2026-05-04 20:16 -18.75749 47.45615 11780 ft 163 kts 318°
2026-05-04 20:16 -18.75642 47.44600 11287 ft 150 kts 217°
2026-05-04 20:16 -18.76499 47.44696 10804 ft 143 kts 116°
2026-05-04 20:17 -18.76171 47.45567 10352 ft 153 kts 15°
2026-05-04 20:17 -18.75345 47.45061 9878 ft 156 kts 275°
2026-05-04 20:17 -18.75895 47.44300 9432 ft 141 kts 172°
2026-05-04 20:17 -18.76385 47.45003 8959 ft 144 kts 70°
2026-05-04 20:18 -18.75537 47.45345 8533 ft 152 kts 327°
2026-05-04 20:18 -18.75361 47.44401 8094 ft 148 kts 223°
2026-05-04 20:18 -18.76222 47.44405 7619 ft 138 kts 120°
2026-05-04 20:18 -18.75964 47.45227 7194 ft 143 kts 16°
2026-05-04 20:19 -18.75202 47.44733 6750 ft 148 kts 273°
2026-05-04 20:19 -18.75767 47.44028 6322 ft 142 kts 171°
2026-05-04 20:19 -18.76248 47.44732 5894 ft 134 kts 66°
2026-05-04 20:19 -18.75461 47.44984 5466 ft 144 kts 321°
2026-05-04 20:20 -18.75414 47.44064 5067 ft 141 kts 214°
2026-05-04 20:20 -18.76211 47.44211 4623 ft 134 kts 110°
2026-05-04 20:20 -18.75907 47.44943 4284 ft 62 kts 269°
2026-05-04 20:20 -18.75821 47.44994 4262 ft 0 kts